Location: Newark
(33.6333°S, 78.8500°W)
Time: 11:07:35
(UTC+00:00)

Vanguard 1 - Pass Details

Date: 23 September 2019
Orbit: 653 x 3830 km, 34.2° (Epoch: 20 October)

Event Time Altitude Azimuth Distance (km) Brightness Sun altitude
Rises 00:21:40 0° 258° (WSW) 3,854 15.0 -15.3°
Reaches altitude 10° 00:23:52 10° 262° (W) 3,146 14.0 -15.8°
Maximum altitude 00:31:41 59° 339° (NNW) 1,991 11.6 -17.4°
Enters shadow 00:42:38 18° 50° (NE) 4,592 12.9 -19.6°
